{"data":{"norad_id":48578,"intl_designator":"2021-041AB","name":"STARLINK-2232","alt_names":[],"object_type":"PAYLOAD","status":"ACTIVE","operator":null,"country":"US","launch_date":"2021-05-15","launch_site_code":"AFETR","launch_vehicle":null,"mission":null,"orbit_class":"UNKNOWN","rcs_meters":null,"size_class":null,"mass_kg":null,"dimensions":null,"purposes":["comms"],"wikipedia_slug":null,"has_3d_model":false,"image_url":null,"decayed_at":null,"tle_current":{"epoch":"2026-05-25T04:18:08.425152Z","epoch_age_seconds":63578,"freshness":"FRESH","line1":"1 48578U 21041AB  26145.17926418  .00007459  00000+0  25188-3 0  9997","line2":"2 48578  53.1568 130.9859 0001254  92.2330 267.8815 15.31699076276995","mean_motion":15.31699076,"eccentricity":0.0001254,"inclination_deg":53.1568,"raan_deg":130.9859,"arg_perigee_deg":92.233,"mean_anomaly_deg":267.8815,"bstar":0.00025188,"rev_number":27699,"period_min":94.0132446747,"perigee_km":469.88390010235,"apogee_km":471.60159914355,"semimajor_km":6848.879749623,"source":"CELESTRAK","updated_at":"2026-05-25T13:38:16.748459Z"}}}